Torna al catalogo

HJ-2F

AttivoScienzaSSO
NORAD 57519·PAYLOAD·🇨🇳 China

Lanciato Aug 8, 2023 da Taiyuan Satellite Launch Center

Loading…

Prossimi Passaggi (prossime 24 ore)

TLE

AggiornatoSource: Space-Track

Epoca: Sep 14, 2026, 15:25 UTC

1 57519U 23116A   26257.64247043  .00005035  00000-0  23653-3 0  9997
2 57519  97.3889 261.3272 0006774 201.4625 158.6327 15.20037225172368

Traccia HJ-2F in tempo reale con AllMySat

Download on the App Store